Portada
METAR-TAF:

METAR-TAF

Aeroports :

Jasper, Geòrgia, Estats Units d'Amèrica

latitud: 34-27-12N, longitud: 084-27-26W, altitud: 468 m

Observació

L'informe es va fer fa 32 minuts, a les 13:55 UTC
Vent 6 kt del Nord
Temperatura 10°C
Humitat 71%
Pressió 1022 hPa
Visibilitat: 16.1 km
Cel clar

METAR: KJZP 271355Z AUTO 01006KT 10SM CLR 10/05 A3018 RMK AO2 T01000048

Hora: 09:27 (14:27 UTC)


TAF: manca

Observacions i pronòstics meteorològics de més de 4000 aeroports (METAR i TAF).

Les estacions disponibles són els punts grocs i vermells al mapa.

Posi el ratolí al punt desitjat per veure el nom de l'estació.

Feu clic per veure les observacions i els pronòstics meteorològics.

Per canviar el mapa: feu clic els botons verds amb una creu de color negre per apropar; al botó verd amb un guió per allunyar la imatge; o en les fletxes verdes per a mapes adjacents.


METAR-TAF: